XTAR-EUR

Last updated on Oct. 23, 2020, 5:56 a.m. UTC

1 28542U 05005A   20295.83408616  .00000138  00000-0  00000+0 0  9996
2 28542   0.0160 249.5663 0002708 313.8739 156.5706  1.00272802 57482
UTC
Height (km)
Latitude
Longitude
Inclination
Orbital Period
UTC large
Height (km)
Speed (km/s)
/
Latitude / Longitude
Inclination (degrees)
Orbital Period (minutes)
Azimuth
Elevation
Range (km)
Doppler Factor
iOS Compass Heading
iOS Angle

Next 30 passes for location: Hong Kong

Rise time Rise Azimuth (degrees) Set time Set Azimuth (degrees) Duration Max altitude (degrees)

No matching passes for this satellites